Location: Hickory_CSC
(35.7330°N, 81.3330°W)
Time: 04:11:17
(UTC-04:00)

Cosmos 1356 Rocket - Visible Passes

Search period start: 24 March 2017 00:00
Search period end: 03 April 2017 00:00
Orbit: 544 x 600 km, 81.2° (Epoch: 22 March)

Date Brightness Start Highest point End Pass type
(mag) Time Alt. Az. Time Alt. Az. Time Alt. Az.
24 Mar 6.2 22:17:44 10° N 22:18:02 12° N 22:18:02 12° N visible
25 Mar 6.0 22:20:21 10° N 22:21:03 15° N 22:21:03 15° N visible
26 Mar 5.9 22:23:01 10° NNW 22:24:08 18° NNW 22:24:08 18° NNW visible
27 Mar 5.6 20:50:57 10° NE 20:51:03 10° NE 20:51:03 10° NE visible
27 Mar 5.8 22:25:46 10° NNW 22:27:16 20° NNW 22:27:16 20° NNW visible
28 Mar 5.2 20:52:37 10° NE 20:54:13 15° ENE 20:54:13 15° ENE visible
28 Mar 5.7 22:28:36 10° NNW 22:30:26 21° NW 22:30:26 21° NW visible
29 Mar 4.8 20:54:42 10° NNE 20:57:28 20° ENE 20:57:28 20° ENE visible
29 Mar 5.8 22:31:33 10° NW 22:33:40 20° WNW 22:33:40 20° WNW visible
30 Mar 4.3 20:56:59 10° NNE 21:00:29 28° ENE 21:00:45 27° E visible
30 Mar 6.0 22:34:40 10° NW 22:36:58 16° W 22:36:58 16° W visible
31 Mar 3.8 20:59:22 10° N 21:03:09 37° ENE 21:04:07 32° ESE visible
31 Mar 6.3 22:38:10 10° WNW 22:39:45 12° W 22:40:20 12° W visible
01 Apr 3.4 21:01:49 10° N 21:05:47 52° E 21:07:34 29° SE visible
02 Apr 3.2 21:04:22 10° N 21:08:25 74° E 21:11:07 20° SSE visible
